FENTRESS NALF, VA

7:37 PM EDT on September 21, 2017 (GMT -0400)
Fentress Naval Air Landing Field

Weather History for KNFE - May, 2014

Change the Weather History Date:

Thursday, May 1, 2014

  Actual Average (KNTU) Record (KNTU)
Temperature  
Mean Temperature 78 °F -  
Max Temperature 84 °F 69 °F 84 °F (2012)
Min Temperature 73 °F 50 °F 45 °F (2008)
Cooling Degree Days 14    
Growing Degree Days 28 (Base 50)    
Moisture  
Dew Point 66 °F    
Average Humidity 73    
Maximum Humidity 85    
Minimum Humidity 53    
Precipitation  
Precipitation 0.00 in - - ()
Sea Level Pressure  
Sea Level Pressure 29.87 in    
Wind  
Wind Speed 11 mph (SSW)    
Max Wind Speed 16 mph    
Max Gust Speed 26 mph    
Visibility 10 miles    
Events      
Averages and records for this station are not official NWS values.
T = Trace of Precipitation, MM = Missing Value Source: NWS Daily Summary

Daily Weather History Graph

Daily Weather History Graph

Search for Another Location

Airport or City:

Trip Planner

Search our weather history database for the weather conditions in past years. The results will help you decide how hot, cold, wet, or windy it might be!

Date:

Astronomy

May. 01, 2014 Rise Set
Actual Time 6:10 AM EDT 7:53 PM EDT
Civil Twilight 5:43 AM EDT 8:20 PM EDT
Nautical Twilight 5:09 AM EDT 8:54 PM EDT
Astronomical Twilight 4:34 AM EDT 9:30 PM EDT
Moon 7:58 AM EDT (5/1) 10:22 PM EDT (5/1)
Length of Visible Light 14h 37m
Length of Day
13h 42m
Waxing Crescent, 6% of the Moon is Illuminated
May 1
Waxing Crescent
May 6
First Quarter
May 14
Full
May 21
Last Quarter
May 28
New

Hourly Weather History & Observations

Time (EDT) Temp. Heat Index Dew Point Humidity Pressure Visibility Wind Dir Wind Speed Gust Speed Precip Events Conditions
12:28 AM 73.9 °F - 68.0 °F 82% 29.94 in 10.0 mi South 16.1 mph - N/A   Mostly Cloudy
12:56 AM 73.9 °F - 68.0 °F 82% 29.94 in 10.0 mi South 13.8 mph 23.0 mph N/A   Scattered Clouds
1:05 AM 73.9 °F - 68.0 °F 82% 29.93 in 10.0 mi South 12.7 mph - N/A   Mostly Cloudy
1:56 AM 73.9 °F - 68.0 °F 82% 29.93 in 10.0 mi South 13.8 mph 19.6 mph N/A   Overcast
2:20 AM 73.9 °F - 68.0 °F 82% 29.92 in 10.0 mi South 12.7 mph 17.3 mph N/A   Overcast
2:56 AM 73.9 °F - 69.1 °F 85% 29.92 in 10.0 mi South 10.4 mph - N/A   Overcast
3:56 AM 73.9 °F - 68.0 °F 82% 29.90 in 10.0 mi South 10.4 mph - N/A   Scattered Clouds
4:12 AM 73.9 °F - 68.0 °F 82% 29.89 in 10.0 mi South 9.2 mph - N/A   Mostly Cloudy
4:43 AM 73.0 °F - 68.0 °F 84% 29.89 in 10.0 mi South 9.2 mph - N/A   Partly Cloudy
4:56 AM 73.9 °F - 68.0 °F 82% 29.90 in 10.0 mi Variable 5.8 mph - N/A   Scattered Clouds
5:07 AM 73.9 °F - 68.0 °F 82% 29.89 in 10.0 mi SSW 6.9 mph - N/A   Mostly Cloudy
5:56 AM 73.0 °F - 68.0 °F 84% 29.90 in 10.0 mi SSW 6.9 mph 16.1 mph N/A   Partly Cloudy
6:20 AM 73.0 °F - 68.0 °F 84% 29.90 in 10.0 mi SSW 8.1 mph - N/A   Mostly Cloudy
6:56 AM 73.0 °F - 68.0 °F 84% 29.91 in 10.0 mi South 9.2 mph - N/A   Scattered Clouds
7:22 AM 73.0 °F - 68.0 °F 84% 29.91 in 10.0 mi SSW 9.2 mph - N/A   Partly Cloudy
7:56 AM 75.0 °F - 68.0 °F 79% 29.90 in 10.0 mi SSW 9.2 mph 18.4 mph N/A   Scattered Clouds
8:56 AM 77.0 °F - 68.0 °F 74% 29.90 in 10.0 mi SSW 10.4 mph 16.1 mph N/A   Overcast
9:56 AM 80.1 °F 82.3 °F 66.9 °F 64% 29.89 in 10.0 mi Variable 6.9 mph 19.6 mph N/A   Scattered Clouds
10:56 AM 80.1 °F 81.9 °F 64.9 °F 60% 29.88 in 10.0 mi SSW 9.2 mph 17.3 mph N/A   Overcast
11:56 AM 84.9 °F 87.1 °F 66.0 °F 53% 29.86 in 10.0 mi North - - N/A   Clear
12:56 PM 84.0 °F 85.8 °F 64.9 °F 53% 29.85 in 10.0 mi SSW 11.5 mph 23.0 mph N/A   Scattered Clouds
1:56 PM 82.9 °F 84.6 °F 64.9 °F 54% 29.84 in 10.0 mi SSW 8.1 mph 19.6 mph N/A   Scattered Clouds
2:56 PM 82.0 °F 84.1 °F 66.0 °F 58% 29.83 in 10.0 mi SSW 11.5 mph 26.5 mph 0.00 in   Mostly Cloudy
3:56 PM 79.0 °F - 62.1 °F 56% 29.83 in 10.0 mi SSW 13.8 mph 24.2 mph N/A   Overcast
4:56 PM 77.0 °F - 62.1 °F 60% 29.82 in 10.0 mi SSW 11.5 mph 20.7 mph N/A   Clear
5:56 PM 78.1 °F - 62.1 °F 58% 29.81 in 10.0 mi SSW 10.4 mph 18.4 mph N/A   Partly Cloudy
6:56 PM 75.9 °F - 63.0 °F 64% 29.80 in 10.0 mi SSW 10.4 mph 17.3 mph N/A   Mostly Cloudy
7:56 PM 75.0 °F - 64.9 °F 71% 29.80 in 10.0 mi SSW 8.1 mph 19.6 mph N/A   Clear
8:56 PM 75.0 °F - 66.0 °F 73% 29.79 in 10.0 mi South 10.4 mph - N/A   Clear
9:56 PM 73.9 °F - 66.0 °F 76% 29.79 in 10.0 mi South 8.1 mph - N/A   Clear
10:56 PM 73.9 °F - 66.0 °F 76% 29.79 in 10.0 mi Variable 5.8 mph - N/A   Mostly Cloudy
11:56 PM 73.0 °F - 64.9 °F 76% 29.79 in 10.0 mi Variable 4.6 mph - N/A   Mostly Cloudy